Tracking 35334 objects as of 13-Sep-2026
HD Live streaming from Space Station
objects crossing your sky now

ONEWEB-0093

Track ONEWEB-0093 now!
10-day predictions
ONEWEB-0093 is classified as:


NORAD ID: 45444
Int'l Code: 2020-020W
Launch date: March 21, 2020
Source: United Kingdom (UK)
Launch site: TYURATAM MISSILE AND SPACE COMPLEX (TTMTR)
Your satellite tracking list
Your tracking list is empty




NASA's NSSDC Master Catalog

Two Line Element Set (TLE):
1 45444U 20020W   26256.59487345  .00000697  00000-0  19317-2 0  9996
2 45444  87.8972   3.4934 0002107 100.0941 260.0424 13.11417238314267
Source of the keplerian elements: AFSPC